Вернуться в каталог

STARLINK-5922

АктивенСвязьVLEO
NORAD 55925·PAYLOAD·🇺🇸 United States

Запущен Mar 17, 2023 с Vandenberg Space Force Base

Loading…

Ближайшие Пролёты (ближайшие 24 часа)

TLE

СвежийSource: CelesTrak SupGP

Эпоха: Sep 15, 2026, 01:28 UTC

1 55925C 23037M   26258.06159722 -.00004651  00000+0 -38908-3 0  2582
2 55925  70.0020 186.9060 0002628 270.4355 143.5293 14.98398674    18

Отслеживайте STARLINK-5922 в реальном времени с AllMySat

Download on the App Store